Time,TemperatureF,DewpointF,PressureIn,WindDirection,WindDirectionDegrees,WindSpeedMPH,WindSpeedGustMPH,Humidity,HourlyPrecipIn,Conditions,Clouds,dailyrainin,SoftwareType,DateUTC
2013-02-26 00:01:00,29.4,24.3,29.12,North,0,6.2,6.2,81,0.00,,,0.00,WUHU216HW,2013-02-26 09:01:00,
2013-02-26 00:06:00,29.4,24.3,29.12,NNE,23,9.1,9.1,81,0.00,,,0.00,WUHU216HW,2013-02-26 09:06:00,
2013-02-26 00:11:00,29.4,24.3,29.12,NNE,23,7.1,9.1,81,0.00,,,0.00,WUHU216HW,2013-02-26 09:11:00,
2013-02-26 00:16:00,29.4,24.3,29.12,NNE,23,6.0,9.1,81,0.00,,,0.00,WUHU216HW,2013-02-26 09:16:00,
2013-02-26 00:21:00,29.4,24.3,29.12,North,0,7.3,7.3,81,0.00,,,0.00,WUHU216HW,2013-02-26 09:21:00,
2013-02-26 00:26:00,29.4,24.3,29.12,NNE,23,5.1,7.3,81,0.00,,,0.00,WUHU216HW,2013-02-26 09:26:00,
2013-02-26 00:31:00,29.3,23.9,29.12,NNE,23,5.3,7.3,80,0.00,,,0.00,WUHU216HW,2013-02-26 09:31:00,
2013-02-26 00:36:00,29.3,23.9,29.13,NNE,23,6.4,7.6,80,0.00,,,0.00,WUHU216HW,2013-02-26 09:36:00,
2013-02-26 00:41:00,29.1,23.7,29.13,North,0,7.6,7.6,80,0.00,,,0.00,WUHU216HW,2013-02-26 09:41:00,
2013-02-26 00:46:00,29.1,23.7,29.13,NNE,23,7.6,7.6,80,0.00,,,0.00,WUHU216HW,2013-02-26 09:46:00,
2013-02-26 00:51:00,29.1,23.7,29.13,NNE,23,5.1,8.7,80,0.00,,,0.00,WUHU216HW,2013-02-26 09:51:00,
2013-02-26 00:56:00,29.1,23.7,29.13,North,0,7.1,8.7,80,0.00,,,0.00,WUHU216HW,2013-02-26 09:56:00,
2013-02-26 01:01:00,29.1,23.7,29.12,NNW,338,9.6,9.6,80,0.00,,,0.00,WUHU216HW,2013-02-26 10:01:00,
2013-02-26 01:06:00,29.1,23.3,29.12,North,0,7.8,9.6,79,0.00,,,0.00,WUHU216HW,2013-02-26 10:06:00,
2013-02-26 01:11:00,28.9,23.2,29.12,NNE,23,6.4,9.6,79,0.00,,,0.00,WUHU216HW,2013-02-26 10:11:00,
2013-02-26 01:16:00,28.9,23.2,29.12,North,0,0.2,10.5,79,0.00,,,0.00,WUHU216HW,2013-02-26 10:16:00,
2013-02-26 01:21:00,28.9,23.2,29.12,NNE,23,9.6,10.5,79,0.00,,,0.00,WUHU216HW,2013-02-26 10:21:00,
2013-02-26 01:26:00,28.9,23.2,29.12,NNE,23,10.5,10.5,79,0.00,,,0.00,WUHU216HW,2013-02-26 10:26:00,
2013-02-26 01:31:00,28.9,23.2,29.12,NNE,23,6.2,10.5,79,0.00,,,0.00,WUHU216HW,2013-02-26 10:31:00,
2013-02-26 01:36:00,28.9,23.2,29.12,North,0,19.2,19.2,79,0.00,,,0.00,WUHU216HW,2013-02-26 10:36:00,
2013-02-26 01:41:00,28.9,23.2,29.12,NNE,23,9.8,19.2,79,0.00,,,0.00,WUHU216HW,2013-02-26 10:41:00,
2013-02-26 01:46:00,28.7,22.7,29.11,NNE,23,10.7,19.2,78,0.00,,,0.00,WUHU216HW,2013-02-26 10:46:00,
2013-02-26 01:51:00,28.7,22.7,29.12,NE,45,8.5,13.1,78,0.00,,,0.00,WUHU216HW,2013-02-26 10:51:00,
2013-02-26 01:56:00,28.7,22.7,29.11,NE,45,8.5,10.7,78,0.00,,,0.00,WUHU216HW,2013-02-26 10:56:00,
2013-02-26 02:01:00,28.7,23.0,29.11,NNW,338,6.0,8.5,79,0.00,,,0.00,WUHU216HW,2013-02-26 11:01:00,
2013-02-26 02:06:00,28.7,23.0,29.11,North,0,8.7,8.7,79,0.00,,,0.00,WUHU216HW,2013-02-26 11:06:00,
2013-02-26 02:11:00,28.7,23.0,29.11,NNE,23,7.8,8.7,79,0.00,,,0.00,WUHU216HW,2013-02-26 11:11:00,
2013-02-26 02:16:00,28.7,23.0,29.11,North,0,9.6,9.6,79,0.00,,,0.00,WUHU216HW,2013-02-26 11:16:00,
2013-02-26 02:21:00,28.7,23.0,29.11,NNE,23,8.2,9.6,79,0.00,,,0.00,WUHU216HW,2013-02-26 11:21:00,
2013-02-26 02:26:00,28.7,23.0,29.11,North,0,1.1,8.7,79,0.00,,,0.00,WUHU216HW,2013-02-26 11:26:00,
2013-02-26 02:31:00,28.7,23.0,29.11,North,0,7.8,8.7,79,0.00,,,0.00,WUHU216HW,2013-02-26 11:31:00,
2013-02-26 02:36:00,28.9,22.9,29.11,North,0,7.3,9.1,78,0.00,,,0.00,WUHU216HW,2013-02-26 11:36:00,
2013-02-26 02:41:00,28.9,22.9,29.11,NNE,23,9.3,9.3,78,0.00,,,0.00,WUHU216HW,2013-02-26 11:41:00,
2013-02-26 02:46:00,28.9,22.9,29.11,North,0,11.1,11.1,78,0.00,,,0.00,WUHU216HW,2013-02-26 11:46:00,
2013-02-26 02:51:00,28.9,22.6,29.11,North,0,9.1,14.3,77,0.00,,,0.00,WUHU216HW,2013-02-26 11:51:00,
2013-02-26 02:56:00,29.1,22.7,29.11,North,0,8.2,14.3,77,0.00,,,0.00,WUHU216HW,2013-02-26 11:56:00,
2013-02-26 03:01:00,28.9,22.6,29.11,NE,45,5.8,9.1,77,0.00,,,0.00,WUHU216HW,2013-02-26 12:01:00,
2013-02-26 03:06:00,28.9,22.6,29.10,North,0,10.5,10.9,77,0.00,,,0.00,WUHU216HW,2013-02-26 12:06:00,
2013-02-26 03:11:00,29.1,22.7,29.11,North,0,10.5,10.9,77,0.00,,,0.00,WUHU216HW,2013-02-26 12:11:00,
2013-02-26 03:16:00,29.1,22.4,29.10,North,0,12.7,12.7,76,0.00,,,0.00,WUHU216HW,2013-02-26 12:16:00,
2013-02-26 03:21:00,28.9,22.2,29.10,NNW,338,11.1,12.7,76,0.00,,,0.00,WUHU216HW,2013-02-26 12:21:00,
2013-02-26 03:26:00,28.9,22.2,29.10,North,0,9.6,14.3,76,0.00,,,0.00,WUHU216HW,2013-02-26 12:26:00,
2013-02-26 03:31:00,28.9,22.2,29.10,North,0,6.9,14.3,76,0.00,,,0.00,WUHU216HW,2013-02-26 12:31:00,
2013-02-26 03:36:00,28.9,22.2,29.10,North,0,6.9,10.7,76,0.00,,,0.00,WUHU216HW,2013-02-26 12:36:00,
2013-02-26 03:41:00,28.9,22.2,29.09,North,0,10.0,10.7,76,0.00,,,0.00,WUHU216HW,2013-02-26 12:41:00,
2013-02-26 03:46:00,28.9,22.2,29.09,North,0,6.9,12.9,76,0.00,,,0.00,WUHU216HW,2013-02-26 12:46:00,
2013-02-26 03:51:00,28.9,22.2,29.09,NNE,23,6.2,12.9,76,0.00,,,0.00,WUHU216HW,2013-02-26 12:51:00,
2013-02-26 03:56:00,28.9,22.2,29.09,NNE,23,8.2,8.2,76,0.00,,,0.00,WUHU216HW,2013-02-26 12:56:00,
2013-02-26 04:01:00,28.7,22.1,29.09,NNE,23,12.0,12.0,76,0.00,,,0.00,WUHU216HW,2013-02-26 13:01:00,
2013-02-26 04:06:00,28.9,22.2,29.08,North,0,12.0,12.0,76,0.00,,,0.00,WUHU216HW,2013-02-26 13:06:00,
2013-02-26 04:11:00,28.7,21.8,29.08,NNE,23,9.3,14.0,75,0.00,,,0.00,WUHU216HW,2013-02-26 13:11:00,
2013-02-26 04:16:00,28.7,21.8,29.09,NE,45,10.2,14.0,75,0.00,,,0.00,WUHU216HW,2013-02-26 13:16:00,
2013-02-26 04:21:00,28.7,21.8,29.08,NNW,338,4.2,12.3,75,0.00,,,0.00,WUHU216HW,2013-02-26 13:21:00,
2013-02-26 04:26:00,28.7,21.8,29.08,NNE,23,7.6,12.3,75,0.00,,,0.00,WUHU216HW,2013-02-26 13:26:00,
2013-02-26 04:31:00,28.7,21.8,29.08,North,0,9.1,12.3,75,0.00,,,0.00,WUHU216HW,2013-02-26 13:31:00,
2013-02-26 04:36:00,28.7,21.4,29.08,NNE,23,12.5,14.3,74,0.00,,,0.00,WUHU216HW,2013-02-26 13:36:00,
2013-02-26 04:41:00,28.7,21.4,29.07,NNE,23,14.5,14.5,74,0.00,,,0.00,WUHU216HW,2013-02-26 13:41:00,
2013-02-26 04:46:00,28.7,21.4,29.07,NNE,23,4.0,14.5,74,0.00,,,0.00,WUHU216HW,2013-02-26 13:46:00,
2013-02-26 04:51:00,28.7,21.4,29.07,NNE,23,13.8,13.8,74,0.00,,,0.00,WUHU216HW,2013-02-26 13:51:00,
2013-02-26 04:57:00,28.5,21.3,29.07,North,0,14.0,14.0,74,0.00,,,0.00,WUHU216HW,2013-02-26 13:57:00,
2013-02-26 05:02:00,28.5,21.3,29.07,North,0,10.0,14.0,74,0.00,,,0.00,WUHU216HW,2013-02-26 14:02:00,
2013-02-26 05:06:00,28.5,21.3,29.07,NNW,338,5.3,14.0,74,0.00,,,0.00,WUHU216HW,2013-02-26 14:06:00,
2013-02-26 05:12:00,28.5,21.3,29.07,NNE,23,8.9,10.2,74,0.00,,,0.00,WUHU216HW,2013-02-26 14:12:00,
2013-02-26 05:17:00,28.5,21.3,29.07,North,0,6.4,10.2,74,0.00,,,0.00,WUHU216HW,2013-02-26 14:17:00,
2013-02-26 05:21:00,28.4,21.1,29.07,NNE,23,6.0,8.9,74,0.00,,,0.00,WUHU216HW,2013-02-26 14:21:00,
2013-02-26 05:26:00,28.2,20.9,29.07,North,0,11.1,11.1,74,0.00,,,0.00,WUHU216HW,2013-02-26 14:26:00,
2013-02-26 05:32:00,28.2,20.9,29.07,NNE,23,4.6,13.4,74,0.00,,,0.00,WUHU216HW,2013-02-26 14:32:00,
2013-02-26 05:37:00,28.2,20.9,29.07,NNE,23,6.4,13.4,74,0.00,,,0.00,WUHU216HW,2013-02-26 14:37:00,
2013-02-26 05:42:00,28.2,20.9,29.07,North,0,10.0,11.1,74,0.00,,,0.00,WUHU216HW,2013-02-26 14:42:00,
2013-02-26 05:47:00,28.2,20.9,29.06,North,0,15.6,15.6,74,0.00,,,0.00,WUHU216HW,2013-02-26 14:47:00,
2013-02-26 05:52:00,28.2,20.9,29.06,North,0,5.1,15.6,74,0.00,,,0.00,WUHU216HW,2013-02-26 14:52:00,
2013-02-26 05:57:00,28.2,20.6,29.06,North,0,6.4,15.6,73,0.00,,,0.00,WUHU216HW,2013-02-26 14:57:00,
2013-02-26 06:02:00,28.2,20.9,29.06,NNE,23,9.8,9.8,74,0.00,,,0.00,WUHU216HW,2013-02-26 15:02:00,
2013-02-26 06:07:00,28.2,20.6,29.06,North,0,7.1,13.4,73,0.00,,,0.00,WUHU216HW,2013-02-26 15:07:00,
2013-02-26 06:12:00,28.2,20.6,29.06,NNE,23,10.0,15.2,73,0.00,,,0.00,WUHU216HW,2013-02-26 15:12:00,
2013-02-26 06:17:00,28.2,20.6,29.06,NNE,23,14.3,15.2,73,0.00,,,0.00,WUHU216HW,2013-02-26 15:17:00,
2013-02-26 06:22:00,28.2,20.6,29.06,North,0,10.2,14.3,73,0.00,,,0.00,WUHU216HW,2013-02-26 15:22:00,
2013-02-26 06:27:00,28.2,20.6,29.06,NNE,23,5.8,14.3,73,0.00,,,0.00,WUHU216HW,2013-02-26 15:27:00,
2013-02-26 06:32:00,28.2,20.6,29.06,NNE,23,7.6,16.7,73,0.00,,,0.00,WUHU216HW,2013-02-26 15:32:00,
2013-02-26 06:37:00,28.0,20.4,29.06,North,0,5.5,16.7,73,0.00,,,0.00,WUHU216HW,2013-02-26 15:37:00,
2013-02-26 06:42:00,28.0,20.4,29.06,North,0,10.7,14.5,73,0.00,,,0.00,WUHU216HW,2013-02-26 15:42:00,
2013-02-26 06:47:00,28.0,20.4,29.06,NE,45,8.7,14.5,73,0.00,,,0.00,WUHU216HW,2013-02-26 15:47:00,
2013-02-26 06:52:00,28.0,20.4,29.06,NNW,338,7.1,10.7,73,0.00,,,0.00,WUHU216HW,2013-02-26 15:52:00,
2013-02-26 06:57:00,27.8,20.3,29.06,North,0,1.7,11.1,73,0.00,,,0.00,WUHU216HW,2013-02-26 15:57:00,
2013-02-26 07:02:00,27.6,20.1,29.06,NNE,23,9.8,11.1,73,0.00,,,0.00,WUHU216HW,2013-02-26 16:02:00,
2013-02-26 07:07:00,27.6,20.1,29.06,NNE,23,11.8,11.8,73,0.00,,,0.00,WUHU216HW,2013-02-26 16:07:00,
2013-02-26 07:12:00,27.6,20.1,29.06,NE,45,4.0,11.8,73,0.00,,,0.00,WUHU216HW,2013-02-26 16:12:00,
2013-02-26 07:17:00,27.8,20.3,29.06,NNE,23,0.6,12.3,73,0.00,,,0.00,WUHU216HW,2013-02-26 16:17:00,
2013-02-26 07:22:00,27.8,20.3,29.06,NNE,23,4.0,12.3,73,0.00,,,0.00,WUHU216HW,2013-02-26 16:22:00,
2013-02-26 07:27:00,27.6,20.1,29.06,NNE,23,2.2,4.0,73,0.00,,,0.00,WUHU216HW,2013-02-26 16:27:00,
2013-02-26 07:32:00,27.6,20.1,29.06,North,0,6.2,6.2,73,0.00,,,0.00,WUHU216HW,2013-02-26 16:32:00,
2013-02-26 07:37:00,27.6,20.1,29.05,NNE,23,0.0,6.2,73,0.00,,,0.00,WUHU216HW,2013-02-26 16:37:00,
2013-02-26 07:42:00,27.6,19.8,29.05,NNE,23,6.0,6.7,72,0.00,,,0.00,WUHU216HW,2013-02-26 16:42:00,
2013-02-26 07:47:00,27.8,20.0,29.05,NNE,23,0.0,6.7,72,0.00,,,0.00,WUHU216HW,2013-02-26 16:47:00,
2013-02-26 07:52:00,28.0,20.1,29.05,North,0,4.0,6.0,72,0.00,,,0.00,WUHU216HW,2013-02-26 16:52:00,
2013-02-26 07:57:00,28.0,20.1,29.06,North,0,7.8,7.8,72,0.00,,,0.00,WUHU216HW,2013-02-26 16:57:00,
2013-02-26 08:02:00,28.0,20.1,29.05,NNE,23,7.8,7.8,72,0.00,,,0.00,WUHU216HW,2013-02-26 17:02:00,
2013-02-26 08:07:00,28.0,20.1,29.05,NNE,23,6.4,11.1,72,0.00,,,0.00,WUHU216HW,2013-02-26 17:07:00,
2013-02-26 08:12:00,28.0,20.1,29.05,North,0,7.3,11.1,72,0.00,,,0.00,WUHU216HW,2013-02-26 17:12:00,
2013-02-26 08:17:00,27.8,20.0,29.05,NNW,338,6.9,8.5,72,0.00,,,0.00,WUHU216HW,2013-02-26 17:17:00,
2013-02-26 08:22:00,27.8,20.0,29.05,North,0,8.7,8.7,72,0.00,,,0.00,WUHU216HW,2013-02-26 17:22:00,
2013-02-26 08:27:00,28.0,20.1,29.05,NE,45,4.0,11.1,72,0.00,,,0.00,WUHU216HW,2013-02-26 17:27:00,
2013-02-26 08:32:00,28.0,20.1,29.05,North,0,8.2,11.1,72,0.00,,,0.00,WUHU216HW,2013-02-26 17:32:00,
2013-02-26 08:37:00,28.0,20.1,29.04,ENE,68,0.0,8.2,72,0.00,,,0.00,WUHU216HW,2013-02-26 17:37:00,
2013-02-26 08:42:00,28.0,19.8,29.04,NNE,23,10.0,10.0,71,0.00,,,0.00,WUHU216HW,2013-02-26 17:42:00,
2013-02-26 08:47:00,28.0,19.8,29.04,North,0,8.7,10.0,71,0.00,,,0.00,WUHU216HW,2013-02-26 17:47:00,
2013-02-26 08:52:00,28.0,19.8,29.04,NNE,23,1.7,8.7,71,0.00,,,0.00,WUHU216HW,2013-02-26 17:52:00,
2013-02-26 08:57:00,28.0,19.8,29.04,North,0,0.6,7.6,71,0.00,,,0.00,WUHU216HW,2013-02-26 17:57:00,
2013-02-26 09:02:00,28.2,20.0,29.04,North,0,5.8,8.2,71,0.00,,,0.00,WUHU216HW,2013-02-26 18:02:00,
2013-02-26 09:07:00,28.2,20.0,29.04,NE,45,6.0,8.2,71,0.00,,,0.00,WUHU216HW,2013-02-26 18:07:00,
2013-02-26 09:12:00,28.2,19.7,29.04,NE,45,4.0,7.8,70,0.00,,,0.00,WUHU216HW,2013-02-26 18:12:00,
2013-02-26 09:17:00,28.2,19.7,29.04,NE,45,3.5,6.9,70,0.00,,,0.00,WUHU216HW,2013-02-26 18:17:00,
2013-02-26 09:22:00,28.5,20.1,29.04,North,0,6.7,6.9,70,0.00,,,0.00,WUHU216HW,2013-02-26 18:22:00,
2013-02-26 09:27:00,28.5,20.1,29.04,North,0,6.4,6.7,70,0.00,,,0.00,WUHU216HW,2013-02-26 18:27:00,
2013-02-26 09:32:00,28.5,20.1,29.03,NNE,23,1.1,6.7,70,0.00,,,0.00,WUHU216HW,2013-02-26 18:32:00,
2013-02-26 09:37:00,28.5,20.1,29.04,NNE,23,1.7,11.4,70,0.00,,,0.00,WUHU216HW,2013-02-26 18:37:00,
2013-02-26 09:42:00,28.9,20.0,29.04,NNE,23,4.4,11.4,69,0.00,,,0.00,WUHU216HW,2013-02-26 18:42:00,
2013-02-26 09:47:00,29.1,20.2,29.03,NNE,23,0.8,4.6,69,0.00,,,0.00,WUHU216HW,2013-02-26 18:47:00,
2013-02-26 09:52:00,29.3,20.3,29.03,North,0,11.8,11.8,69,0.00,,,0.00,WUHU216HW,2013-02-26 18:52:00,
2013-02-26 09:57:00,29.4,20.5,29.03,North,0,4.2,11.8,69,0.00,,,0.00,WUHU216HW,2013-02-26 18:57:00,
2013-02-26 10:02:00,29.8,20.5,29.03,NNE,23,5.8,11.8,68,0.00,,,0.00,WUHU216HW,2013-02-26 19:02:00,
2013-02-26 10:07:00,29.8,20.5,29.03,NNE,23,6.4,6.4,68,0.00,,,0.00,WUHU216HW,2013-02-26 19:07:00,
2013-02-26 10:12:00,30.0,20.6,29.03,NNW,338,8.2,8.2,68,0.00,,,0.00,WUHU216HW,2013-02-26 19:12:00,
2013-02-26 10:17:00,30.0,20.6,29.03,NE,45,4.9,8.2,68,0.00,,,0.00,WUHU216HW,2013-02-26 19:17:00,
2013-02-26 10:22:00,30.0,20.3,29.02,NNE,23,10.2,10.2,67,0.00,,,0.00,WUHU216HW,2013-02-26 19:22:00,
2013-02-26 10:27:00,30.2,20.4,29.02,NNE,23,8.0,10.2,67,0.00,,,0.00,WUHU216HW,2013-02-26 19:27:00,
2013-02-26 10:32:00,30.2,20.4,29.03,NNE,23,2.2,10.2,67,0.00,,,0.00,WUHU216HW,2013-02-26 19:32:00,
2013-02-26 10:37:00,30.3,20.6,29.03,North,0,3.5,7.1,67,0.00,,,0.00,WUHU216HW,2013-02-26 19:37:00,
2013-02-26 10:43:00,30.3,20.6,29.02,NNW,338,0.0,7.1,67,0.00,,,0.00,WUHU216HW,2013-02-26 19:43:00,
2013-02-26 10:48:00,30.5,20.8,29.02,NNE,23,8.9,8.9,67,0.00,,,0.00,WUHU216HW,2013-02-26 19:48:00,
2013-02-26 10:53:00,30.7,21.0,29.01,NNE,23,3.1,8.9,67,0.00,,,0.00,WUHU216HW,2013-02-26 19:53:00,
2013-02-26 10:58:00,30.9,20.8,29.01,NE,45,8.7,8.9,66,0.00,,,0.00,WUHU216HW,2013-02-26 19:58:00,
2013-02-26 11:03:00,31.1,20.6,29.01,NNW,338,2.6,10.7,65,0.00,,,0.00,WUHU216HW,2013-02-26 20:03:00,
2013-02-26 11:08:00,31.2,20.8,29.01,North,0,6.2,11.8,65,0.00,,,0.00,WUHU216HW,2013-02-26 20:08:00,
2013-02-26 11:13:00,31.2,20.8,29.01,North,0,11.4,11.8,65,0.00,,,0.00,WUHU216HW,2013-02-26 20:13:00,
2013-02-26 11:18:00,31.2,20.8,29.01,NNE,23,7.3,11.4,65,0.00,,,0.00,WUHU216HW,2013-02-26 20:18:00,
2013-02-26 11:23:00,31.6,21.2,29.02,NNE,23,7.6,10.9,65,0.00,,,0.00,WUHU216HW,2013-02-26 20:23:00,
2013-02-26 11:28:00,31.8,21.0,29.01,NNE,23,10.0,10.9,64,0.00,,,0.00,WUHU216HW,2013-02-26 20:28:00,
2013-02-26 11:33:00,32.1,21.3,29.01,NNE,23,6.4,14.7,64,0.00,,,0.00,WUHU216HW,2013-02-26 20:33:00,
2013-02-26 11:38:00,32.9,22.0,29.01,NNE,23,5.8,14.7,64,0.00,,,0.00,WUHU216HW,2013-02-26 20:38:00,
2013-02-26 11:43:00,33.4,22.1,29.00,NNE,23,14.7,14.7,63,0.00,,,0.00,WUHU216HW,2013-02-26 20:43:00,
2013-02-26 11:48:00,33.8,22.4,29.00,North,0,14.7,14.7,63,0.00,,,0.00,WUHU216HW,2013-02-26 20:48:00,
2013-02-26 11:53:00,34.5,23.1,29.00,North,0,7.1,14.7,63,0.00,,,0.00,WUHU216HW,2013-02-26 20:53:00,
2013-02-26 11:58:00,35.2,23.9,29.00,NNE,23,1.3,9.3,63,0.00,,,0.00,WUHU216HW,2013-02-26 20:58:00,
2013-02-26 12:03:00,35.9,23.8,29.00,North,0,6.9,7.1,61,0.00,,,0.00,WUHU216HW,2013-02-26 21:03:00,
2013-02-26 12:08:00,37.5,25.3,29.00,NNE,23,0.0,8.9,61,0.00,,,0.00,WUHU216HW,2013-02-26 21:08:00,
2013-02-26 12:13:00,39.9,27.5,29.00,NE,45,0.0,8.9,61,0.00,,,0.00,WUHU216HW,2013-02-26 21:13:00,
2013-02-26 12:18:00,42.9,29.1,29.00,NNE,23,4.0,9.3,58,0.00,,,0.00,WUHU216HW,2013-02-26 21:18:00,
2013-02-26 12:23:00,46.5,30.7,29.00,NNE,23,0.0,14.3,54,0.00,,,0.00,WUHU216HW,2013-02-26 21:23:00,
2013-02-26 12:28:00,48.3,31.0,29.00,NE,45,12.0,14.3,51,0.00,,,0.00,WUHU216HW,2013-02-26 21:28:00,
2013-02-26 12:33:00,49.2,31.4,28.99,NNE,23,10.5,15.2,50,0.00,,,0.00,WUHU216HW,2013-02-26 21:33:00,
2013-02-26 12:38:00,50.9,31.3,28.99,North,0,6.0,15.2,47,0.00,,,0.00,WUHU216HW,2013-02-26 21:38:00,
2013-02-26 12:43:00,52.1,32.4,28.99,NE,45,5.5,10.5,47,0.00,,,0.00,WUHU216HW,2013-02-26 21:43:00,
2013-02-26 12:48:00,52.8,31.9,28.98,North,0,10.9,10.9,45,0.00,,,0.00,WUHU216HW,2013-02-26 21:48:00,
2013-02-26 12:53:00,52.3,29.8,28.98,North,0,8.7,10.9,42,0.00,,,0.00,WUHU216HW,2013-02-26 21:53:00,
2013-02-26 12:58:00,51.9,29.4,28.98,North,0,6.4,10.9,42,0.00,,,0.00,WUHU216HW,2013-02-26 21:58:00,
2013-02-26 13:03:00,51.0,27.8,28.98,North,0,10.2,10.2,42,0.00,,,0.00,WUHU216HW,2013-02-26 22:03:00,
2013-02-26 13:08:00,48.3,26.7,28.98,NNE,23,6.4,15.4,43,0.00,,,0.00,WUHU216HW,2013-02-26 22:08:00,
2013-02-26 13:13:00,46.7,25.3,28.98,NNE,23,11.1,15.4,43,0.00,,,0.00,WUHU216HW,2013-02-26 22:13:00,
2013-02-26 13:18:00,47.1,26.7,28.98,NNE,23,13.6,13.6,45,0.00,,,0.00,WUHU216HW,2013-02-26 22:18:00,
2013-02-26 13:23:00,48.3,28.3,28.98,North,0,15.8,18.5,46,0.00,,,0.00,WUHU216HW,2013-02-26 22:23:00,
2013-02-26 13:28:00,49.2,28.7,28.98,NNE,23,11.4,18.5,45,0.00,,,0.00,WUHU216HW,2013-02-26 22:28:00,
2013-02-26 13:33:00,50.1,29.1,28.98,North,0,8.5,17.6,44,0.00,,,0.00,WUHU216HW,2013-02-26 22:33:00,
2013-02-26 13:38:00,51.4,29.5,28.98,NNE,23,9.3,17.6,43,0.00,,,0.00,WUHU216HW,2013-02-26 22:38:00,
2013-02-26 13:43:00,52.1,30.2,28.98,NNE,23,9.1,10.9,43,0.00,,,0.00,WUHU216HW,2013-02-26 22:43:00,
2013-02-26 13:48:00,51.6,29.1,28.97,NNE,23,6.4,15.4,42,0.00,,,0.00,WUHU216HW,2013-02-26 22:48:00,
2013-02-26 13:53:00,47.8,25.7,28.97,NNE,23,13.6,15.4,42,0.00,,,0.00,WUHU216HW,2013-02-26 22:53:00,
2013-02-26 13:58:00,45.5,24.7,28.97,North,0,9.1,13.6,44,0.00,,,0.00,WUHU216HW,2013-02-26 22:58:00,
2013-02-26 14:03:00,42.9,24.1,28.97,NNE,23,7.3,13.6,47,0.00,,,0.00,WUHU216HW,2013-02-26 23:03:00,
2013-02-26 14:08:00,41.9,23.5,28.97,NE,45,0.0,9.1,48,0.00,,,0.00,WUHU216HW,2013-02-26 23:08:00,
2013-02-26 14:13:00,41.0,23.1,28.96,NNE,23,6.4,11.6,49,0.00,,,0.00,WUHU216HW,2013-02-26 23:13:00,
2013-02-26 14:18:00,40.4,23.2,28.96,NNE,23,4.9,12.0,50,0.00,,,0.00,WUHU216HW,2013-02-26 23:18:00,
2013-02-26 14:23:00,40.1,23.3,28.95,North,0,7.6,12.0,51,0.00,,,0.00,WUHU216HW,2013-02-26 23:23:00,
2013-02-26 14:28:00,39.9,23.6,28.95,NNE,23,6.4,7.6,52,0.00,,,0.00,WUHU216HW,2013-02-26 23:28:00,
2013-02-26 14:33:00,39.3,23.1,28.95,North,0,5.3,8.9,52,0.00,,,0.00,WUHU216HW,2013-02-26 23:33:00,
2013-02-26 14:38:00,39.3,23.5,28.95,NNE,23,9.8,9.8,53,0.00,,,0.00,WUHU216HW,2013-02-26 23:38:00,
2013-02-26 14:43:00,39.3,23.5,28.96,NNE,23,10.2,10.2,53,0.00,,,0.00,WUHU216HW,2013-02-26 23:43:00,
2013-02-26 14:48:00,39.0,23.6,28.95,North,0,11.6,17.6,54,0.00,,,0.00,WUHU216HW,2013-02-26 23:48:00,
2013-02-26 14:53:00,38.8,23.5,28.95,NE,45,9.3,17.6,54,0.00,,,0.00,WUHU216HW,2013-02-26 23:53:00,
2013-02-26 14:58:00,38.8,23.5,28.95,NNE,23,6.2,11.6,54,0.00,,,0.00,WUHU216HW,2013-02-26 23:58:00,
2013-02-26 15:03:00,39.0,24.0,28.95,NNE,23,3.5,9.3,55,0.00,,,0.00,WUHU216HW,2013-02-27 00:03:00,
2013-02-26 15:08:00,38.8,23.9,28.95,North,0,6.2,8.7,55,0.00,,,0.00,WUHU216HW,2013-02-27 00:08:00,
2013-02-26 15:13:00,38.8,23.9,28.94,North,0,8.5,8.5,55,0.00,,,0.00,WUHU216HW,2013-02-27 00:13:00,
2013-02-26 15:18:00,38.8,23.9,28.94,NNE,23,2.4,8.5,55,0.00,,,0.00,WUHU216HW,2013-02-27 00:18:00,
2013-02-26 15:23:00,38.8,23.9,28.93,North,0,8.0,8.0,55,0.00,,,0.00,WUHU216HW,2013-02-27 00:23:00,
2013-02-26 15:28:00,38.6,24.2,28.93,NNE,23,4.9,15.8,56,0.00,,,0.00,WUHU216HW,2013-02-27 00:28:00,
2013-02-26 15:33:00,38.4,24.0,28.94,NNE,23,3.8,15.8,56,0.00,,,0.00,WUHU216HW,2013-02-27 00:33:00,
2013-02-26 15:38:00,38.4,24.0,28.94,NE,45,8.7,14.3,56,0.00,,,0.00,WUHU216HW,2013-02-27 00:38:00,
2013-02-26 15:43:00,38.1,23.2,28.93,North,0,5.3,11.8,55,0.00,,,0.00,WUHU216HW,2013-02-27 00:43:00,
2013-02-26 15:48:00,38.1,23.7,28.94,NE,45,5.5,9.3,56,0.00,,,0.00,WUHU216HW,2013-02-27 00:48:00,
2013-02-26 15:53:00,38.1,23.7,28.93,NNW,338,5.1,12.7,56,0.00,,,0.00,WUHU216HW,2013-02-27 00:53:00,
2013-02-26 15:58:00,37.9,23.5,28.93,North,0,11.8,12.7,56,0.00,,,0.00,WUHU216HW,2013-02-27 00:58:00,
2013-02-26 16:03:00,37.9,23.5,28.93,North,0,17.6,17.6,56,0.00,,,0.00,WUHU216HW,2013-02-27 01:03:00,
2013-02-26 16:08:00,37.5,22.8,28.93,NNE,23,11.8,17.6,55,0.00,,,0.00,WUHU216HW,2013-02-27 01:08:00,
2013-02-26 16:13:00,37.0,22.7,28.93,North,0,8.7,13.4,56,0.00,,,0.00,WUHU216HW,2013-02-27 01:13:00,
2013-02-26 16:18:00,37.0,22.7,28.93,NNE,23,7.3,12.9,56,0.00,,,0.00,WUHU216HW,2013-02-27 01:18:00,
2013-02-26 16:23:00,36.8,23.0,28.92,NNE,23,6.9,12.9,57,0.00,,,0.00,WUHU216HW,2013-02-27 01:23:00,
2013-02-26 16:28:00,36.6,22.4,28.92,North,0,16.7,16.7,56,0.00,,,0.00,WUHU216HW,2013-02-27 01:28:00,
2013-02-26 16:33:00,36.6,22.4,28.92,North,0,9.6,16.7,56,0.00,,,0.00,WUHU216HW,2013-02-27 01:33:00,
2013-02-26 16:38:00,36.6,22.8,28.92,NNE,23,7.3,16.7,57,0.00,,,0.00,WUHU216HW,2013-02-27 01:38:00,
2013-02-26 16:44:00,36.5,22.6,28.92,NE,45,10.9,10.9,57,0.00,,,0.00,WUHU216HW,2013-02-27 01:44:00,
2013-02-26 16:49:00,36.5,22.6,28.92,NNE,23,10.9,10.9,57,0.00,,,0.00,WUHU216HW,2013-02-27 01:49:00,
2013-02-26 16:53:00,36.5,23.1,28.91,NNW,338,10.0,10.9,58,0.00,,,0.00,WUHU216HW,2013-02-27 01:53:00,
2013-02-26 16:58:00,36.3,22.9,28.91,NNE,23,6.2,10.0,58,0.00,,,0.00,WUHU216HW,2013-02-27 01:58:00,
2013-02-26 17:03:00,36.3,22.9,28.91,North,0,7.1,8.7,58,0.00,,,0.00,WUHU216HW,2013-02-27 02:03:00,
2013-02-26 17:09:00,36.3,23.3,28.91,NNE,23,4.0,8.7,59,0.00,,,0.00,WUHU216HW,2013-02-27 02:09:00,
2013-02-26 17:14:00,35.9,23.0,28.90,North,0,8.2,16.3,59,0.00,,,0.00,WUHU216HW,2013-02-27 02:14:00,
2013-02-26 17:19:00,35.7,23.3,28.91,North,0,7.3,16.3,60,0.00,,,0.00,WUHU216HW,2013-02-27 02:19:00,
2013-02-26 17:24:00,35.4,23.0,28.91,North,0,6.2,16.3,60,0.00,,,0.00,WUHU216HW,2013-02-27 02:24:00,
2013-02-26 17:29:00,35.2,22.8,28.92,NNE,23,6.9,16.3,60,0.00,,,0.00,WUHU216HW,2013-02-27 02:29:00,
2013-02-26 17:34:00,34.8,22.8,28.91,North,0,10.0,12.0,61,0.00,,,0.00,WUHU216HW,2013-02-27 02:34:00,
2013-02-26 17:39:00,34.8,23.1,28.91,NNE,23,10.7,10.7,62,0.00,,,0.00,WUHU216HW,2013-02-27 02:39:00,
2013-02-26 17:44:00,34.7,23.0,28.91,NNW,338,7.8,10.7,62,0.00,,,0.00,WUHU216HW,2013-02-27 02:44:00,
2013-02-26 17:49:00,34.7,23.0,28.91,NNE,23,13.1,13.1,62,0.00,,,0.00,WUHU216HW,2013-02-27 02:49:00,
2013-02-26 17:54:00,34.3,23.0,28.92,NNE,23,2.6,13.1,63,0.00,,,0.00,WUHU216HW,2013-02-27 02:54:00,
2013-02-26 17:59:00,34.3,23.0,28.92,NNE,23,5.5,6.7,63,0.00,,,0.00,WUHU216HW,2013-02-27 02:59:00,
2013-02-26 18:04:00,34.3,23.0,28.92,NE,45,7.6,9.3,63,0.00,,,0.00,WUHU216HW,2013-02-27 03:04:00,
2013-02-26 18:09:00,34.3,23.0,28.92,NNE,23,7.8,12.7,63,0.00,,,0.00,WUHU216HW,2013-02-27 03:09:00,
2013-02-26 18:14:00,33.8,22.4,28.92,NNE,23,11.8,12.7,63,0.00,,,0.00,WUHU216HW,2013-02-27 03:14:00,
2013-02-26 18:19:00,33.6,22.2,28.91,North,0,18.7,18.7,63,0.00,,,0.00,WUHU216HW,2013-02-27 03:19:00,
2013-02-26 18:24:00,33.2,21.8,28.91,NNE,23,5.8,18.7,63,0.00,,,0.00,WUHU216HW,2013-02-27 03:24:00,
2013-02-26 18:29:00,32.7,21.4,28.91,North,0,7.6,8.2,63,0.00,,,0.00,WUHU216HW,2013-02-27 03:29:00,
2013-02-26 18:34:00,32.5,21.6,28.91,NNE,23,2.9,8.2,64,0.00,,,0.00,WUHU216HW,2013-02-27 03:34:00,
2013-02-26 18:39:00,31.8,21.3,28.91,North,0,8.5,8.5,64,0.00,,,0.00,WUHU216HW,2013-02-27 03:39:00,
2013-02-26 18:44:00,31.6,20.8,28.91,NNE,23,1.3,8.5,64,0.00,,,0.00,WUHU216HW,2013-02-27 03:44:00,
2013-02-26 18:49:00,31.2,20.4,28.91,NNE,23,3.5,8.5,64,0.00,,,0.00,WUHU216HW,2013-02-27 03:49:00,
2013-02-26 18:54:00,30.9,20.1,28.91,North,0,4.6,5.1,64,0.00,,,0.00,WUHU216HW,2013-02-27 03:54:00,
2013-02-26 18:59:00,30.5,19.7,28.91,NNE,23,0.8,5.1,64,0.00,,,0.00,WUHU216HW,2013-02-27 03:59:00,
2013-02-26 19:04:00,30.3,19.5,28.90,NNE,23,0.0,4.6,64,0.00,,,0.00,WUHU216HW,2013-02-27 04:04:00,
2013-02-26 19:09:00,30.0,19.2,28.90,NNE,23,1.7,2.9,64,0.00,,,0.00,WUHU216HW,2013-02-27 04:09:00,
2013-02-26 19:14:00,29.6,18.9,28.90,NNE,23,0.0,1.7,64,0.00,,,0.00,WUHU216HW,2013-02-27 04:14:00,
2013-02-26 19:19:00,29.3,18.9,28.90,NNE,23,2.6,2.6,65,0.00,,,0.00,WUHU216HW,2013-02-27 04:19:00,
2013-02-26 19:24:00,28.9,18.6,28.90,NNE,23,4.0,4.0,65,0.00,,,0.00,WUHU216HW,2013-02-27 04:24:00,
2013-02-26 19:29:00,28.5,18.3,28.90,NNE,23,10.5,10.5,65,0.00,,,0.00,WUHU216HW,2013-02-27 04:29:00,
2013-02-26 19:34:00,28.5,18.3,28.90,NNE,23,4.6,10.5,65,0.00,,,0.00,WUHU216HW,2013-02-27 04:34:00,
2013-02-26 19:39:00,28.5,18.3,28.90,NE,45,2.6,10.5,65,0.00,,,0.00,WUHU216HW,2013-02-27 04:39:00,
2013-02-26 19:44:00,28.2,17.9,28.90,NE,45,0.0,5.5,65,0.00,,,0.00,WUHU216HW,2013-02-27 04:44:00,
2013-02-26 19:49:00,28.2,18.3,28.90,North,0,2.9,5.5,66,0.00,,,0.00,WUHU216HW,2013-02-27 04:49:00,
2013-02-26 19:54:00,28.2,18.3,28.90,NE,45,0.0,2.9,66,0.00,,,0.00,WUHU216HW,2013-02-27 04:54:00,
2013-02-26 19:59:00,28.2,18.6,28.90,NNE,23,0.0,2.9,67,0.00,,,0.00,WUHU216HW,2013-02-27 04:59:00,
2013-02-26 20:00:00,28.2,18.6,28.90,NNE,23,0.0,2.9,67,0.00,,,0.00,WUHU216HW,2013-02-27 05:00:00,
2013-02-26 20:06:00,28.0,18.5,28.90,NE,45,0.0,2.0,67,0.00,,,0.00,WUHU216HW,2013-02-27 05:06:00,
2013-02-26 20:11:00,28.2,18.6,28.90,NE,45,0.0,2.9,67,0.00,,,0.00,WUHU216HW,2013-02-27 05:11:00,
2013-02-26 20:16:00,28.0,18.5,28.90,NNE,23,0.0,2.9,67,0.00,,,0.00,WUHU216HW,2013-02-27 05:16:00,
2013-02-26 20:21:00,28.0,18.5,28.90,NNE,23,2.6,4.0,67,0.00,,,0.00,WUHU216HW,2013-02-27 05:21:00,
2013-02-26 20:26:00,28.0,18.5,28.90,NNE,23,1.7,4.0,67,0.00,,,0.00,WUHU216HW,2013-02-27 05:26:00,
2013-02-26 20:31:00,28.0,18.8,28.90,NNE,23,2.2,2.2,68,0.00,,,0.00,WUHU216HW,2013-02-27 05:31:00,
2013-02-26 20:36:00,28.0,19.2,28.90,NNE,23,2.6,2.6,69,0.00,,,0.00,WUHU216HW,2013-02-27 05:36:00,
2013-02-26 20:41:00,28.0,19.2,28.90,North,0,5.5,7.1,69,0.00,,,0.00,WUHU216HW,2013-02-27 05:41:00,
2013-02-26 20:46:00,28.2,19.7,28.89,North,0,0.0,7.1,70,0.00,,,0.00,WUHU216HW,2013-02-27 05:46:00,
2013-02-26 20:51:00,28.2,19.7,28.89,North,0,5.5,5.5,70,0.00,,,0.00,WUHU216HW,2013-02-27 05:51:00,
2013-02-26 20:56:00,28.2,19.7,28.89,NNE,23,0.0,5.5,70,0.00,,,0.00,WUHU216HW,2013-02-27 05:56:00,
2013-02-26 21:01:00,28.4,19.9,28.88,North,0,1.3,1.7,70,0.00,,,0.00,WUHU216HW,2013-02-27 06:01:00,
2013-02-26 21:06:00,28.5,20.4,28.88,NNE,23,5.1,5.1,71,0.00,,,0.00,WUHU216HW,2013-02-27 06:06:00,
2013-02-26 21:11:00,28.5,20.4,28.88,NE,45,6.4,8.0,71,0.00,,,0.00,WUHU216HW,2013-02-27 06:11:00,
2013-02-26 21:16:00,28.7,20.2,28.88,NNE,23,1.1,8.0,70,0.00,,,0.00,WUHU216HW,2013-02-27 06:16:00,
2013-02-26 21:21:00,28.7,20.2,28.88,North,0,3.8,6.4,70,0.00,,,0.00,WUHU216HW,2013-02-27 06:21:00,
2013-02-26 21:26:00,28.9,20.4,28.88,North,0,3.5,9.1,70,0.00,,,0.00,WUHU216HW,2013-02-27 06:26:00,
2013-02-26 21:31:00,29.1,20.5,28.88,North,0,5.8,9.1,70,0.00,,,0.00,WUHU216HW,2013-02-27 06:31:00,
2013-02-26 21:36:00,29.1,20.5,28.89,NNE,23,4.6,5.8,70,0.00,,,0.00,WUHU216HW,2013-02-27 06:36:00,
2013-02-26 21:41:00,29.1,20.2,28.88,North,0,7.3,7.3,69,0.00,,,0.00,WUHU216HW,2013-02-27 06:41:00,
2013-02-26 21:46:00,29.1,20.2,28.88,North,0,8.0,10.9,69,0.00,,,0.00,WUHU216HW,2013-02-27 06:46:00,
2013-02-26 21:51:00,29.1,19.8,28.88,NE,45,2.6,10.9,68,0.00,,,0.00,WUHU216HW,2013-02-27 06:51:00,
2013-02-26 21:56:00,29.1,19.8,28.88,NNE,23,9.1,9.1,68,0.00,,,0.00,WUHU216HW,2013-02-27 06:56:00,
2013-02-26 22:01:00,28.9,20.0,28.88,NNE,23,4.2,9.1,69,0.00,,,0.00,WUHU216HW,2013-02-27 07:01:00,
2013-02-26 22:06:00,28.9,20.0,28.88,NE,45,4.4,9.1,69,0.00,,,0.00,WUHU216HW,2013-02-27 07:06:00,
2013-02-26 22:11:00,28.7,19.9,28.88,NNE,23,2.2,4.4,69,0.00,,,0.00,WUHU216HW,2013-02-27 07:11:00,
2013-02-26 22:16:00,28.7,19.9,28.88,NNE,23,7.6,7.6,69,0.00,,,0.00,WUHU216HW,2013-02-27 07:16:00,
2013-02-26 22:21:00,28.7,19.9,28.88,NE,45,2.4,7.6,69,0.00,,,0.00,WUHU216HW,2013-02-27 07:21:00,
2013-02-26 22:26:00,28.7,19.9,28.88,North,0,4.4,7.6,69,0.00,,,0.00,WUHU216HW,2013-02-27 07:26:00,
2013-02-26 22:31:00,28.7,20.2,28.88,NNE,23,0.6,4.4,70,0.00,,,0.00,WUHU216HW,2013-02-27 07:31:00,
2013-02-26 22:36:00,28.7,20.2,28.87,NE,45,6.2,6.2,70,0.00,,,0.00,WUHU216HW,2013-02-27 07:36:00,
2013-02-26 22:41:00,28.5,20.1,28.87,NE,45,0.0,6.2,70,0.00,,,0.00,WUHU216HW,2013-02-27 07:41:00,
2013-02-26 22:46:00,28.5,20.1,28.87,NNE,23,4.2,6.2,70,0.00,,,0.00,WUHU216HW,2013-02-27 07:46:00,
2013-02-26 22:51:00,28.2,19.7,28.87,NNE,23,0.0,6.2,70,0.00,,,0.00,WUHU216HW,2013-02-27 07:51:00,
2013-02-26 22:56:00,28.2,19.7,28.87,NNE,23,8.0,8.0,70,0.00,,,0.00,WUHU216HW,2013-02-27 07:56:00,
2013-02-26 23:01:00,28.2,19.7,28.87,NNE,23,0.0,8.0,70,0.00,,,0.00,WUHU216HW,2013-02-27 08:01:00,
2013-02-26 23:06:00,28.2,19.7,28.87,NNE,23,6.9,7.1,70,0.00,,,0.00,WUHU216HW,2013-02-27 08:06:00,
2013-02-26 23:11:00,28.2,19.7,28.87,North,0,6.9,6.9,70,0.00,,,0.00,WUHU216HW,2013-02-27 08:11:00,
2013-02-26 23:16:00,28.2,19.7,28.88,North,0,6.2,6.9,70,0.00,,,0.00,WUHU216HW,2013-02-27 08:16:00,
2013-02-26 23:21:00,28.2,19.7,28.88,NNE,23,0.6,6.9,70,0.00,,,0.00,WUHU216HW,2013-02-27 08:21:00,
2013-02-26 23:26:00,28.0,19.5,28.88,NNE,23,9.1,9.1,70,0.00,,,0.00,WUHU216HW,2013-02-27 08:26:00,
2013-02-26 23:31:00,28.0,19.2,28.88,NNE,23,0.0,9.1,69,0.00,,,0.00,WUHU216HW,2013-02-27 08:31:00,
2013-02-26 23:36:00,27.6,18.8,28.87,NNW,338,2.0,9.1,69,0.00,,,0.00,WUHU216HW,2013-02-27 08:36:00,
2013-02-26 23:41:00,27.6,18.8,28.87,North,0,0.0,2.0,69,0.00,,,0.00,WUHU216HW,2013-02-27 08:41:00,
2013-02-26 23:46:00,27.5,18.6,28.87,NNE,23,0.0,1.3,69,0.00,,,0.00,WUHU216HW,2013-02-27 08:46:00,
2013-02-26 23:51:00,27.3,18.5,28.87,NNE,23,0.0,1.3,69,0.00,,,0.00,WUHU216HW,2013-02-27 08:51:00,
2013-02-26 23:56:00,27.1,18.3,28.86,NE,45,0.0,1.1,69,0.00,,,0.00,WUHU216HW,2013-02-27 08:56:00,